User: anonymous
Location: PFO Observatory
(45.2937°N, 66.0991°W)
Time: 01:04:36
(UTC-03:00)
Language:

Cosmos 1151 Rocket - Orbit

View from above orbital plane
View from above orbital plane
View from above satellite
View from above satellite

Ground track
Ground track

The orbit data is extracted from the following two-line orbital elements,

1 11672U 80005B   14263.70845270  .00000393  00000-0  40762-4 0  1292
2 11672 082.5142 303.3824 0017585 042.5804 096.7132 14.87240199874656
Epoch (UTC): 20 September 2014 17:00:10
Eccentricity: 0.0017585
inclination: 82.5142°
perigee height: 594 km
apogee height: 619 km
right ascension of ascending node: 303.3824°
argument of perigee: 42.5804°
revolutions per day: 14.87240199
mean anomaly at epoch: 96.7132°
orbit number at epoch: 87465

The dashed part of the orbit path shows where the satellite is in the earth's shadow,  

DLR